Waarnemingen

Advertentie
Mijn weer
Semmerzake, België (6428): temperatuur & dauwpunt: 14.04.2019 02:00:00 - 20.04.2019 02:00:00 (CEST)Semmerzake, België (6428): windsnelheid & windstoten: 14.04.2019 02:00:00 - 20.04.2019 02:00:00 (CEST)Semmerzake, België (6428): windrichting: 14.04.2019 02:00:00 - 20.04.2019 02:00:00 (CEST)Semmerzake, België (6428): luchtdruk: 14.04.2019 02:00:00 - 20.04.2019 02:00:00 (CEST)Semmerzake, België (6428): zicht: 14.04.2019 02:00:00 - 20.04.2019 02:00:00 (CEST)
Datum & Tijd tt [°C] td [°C] ff [km/u] ff [kn] fx [km/u] fx [kn] dd ppp [hPa] vv [km]
20.04.2019 02:00:00 12,8 5,3 7 4 - - NNO 1028,2 20
20.04.2019 01:00:00 13,6 5,5 7 4 14 8 NO 1028,2 20
20.04.2019 00:00:00 14,4 5,7 11 6 11 6 NO 1028,2 20
19.04.2019 23:00:00 15,6 6,2 11 6 - - NO 1028,0 20
19.04.2019 22:00:00 16,8 6,7 11 6 18 10 NO 1027,9 20
19.04.2019 21:00:00 18,7 7,1 7 4 18 10 NNO 1027,2 20
19.04.2019 20:00:00 20,9 6,7 11 6 - - NNO 1026,7 18
19.04.2019 19:00:00 22,7 5,3 7 4 22 12 ONO 1026,4 20
19.04.2019 18:00:00 23,3 5,0 11 6 18 10 NO 1026,2 17
19.04.2019 17:00:00 23,3 3,6 11 6 - - NO 1026,4 20
19.04.2019 16:00:00 23,1 4,2 7 4 25 14 O 1026,7 20
19.04.2019 15:00:00 23,3 6,2 11 6 25 14 O 1026,9 20
19.04.2019 14:00:00 22,8 7,3 14 8 - - NO 1026,9 20
19.04.2019 13:00:00 21,4 8,3 11 6 22 12 ONO 1027,2 15
19.04.2019 12:00:00 19,3 6,6 11 6 18 10 O 1027,4 17
19.04.2019 11:00:00 17,2 6,5 11 6 - - ONO 1027,4 20
19.04.2019 10:00:00 15,1 5,9 11 6 18 10 ONO 1027,2 18
19.04.2019 09:00:00 13,0 4,9 11 6 18 10 ONO 1026,9 20
19.04.2019 08:00:00 11,1 4,2 11 6 - - ONO 1026,5 17
19.04.2019 07:00:00 10,2 3,6 7 4 14 8 N 1026,0 17
19.04.2019 06:00:00 11,4 3,7 7 4 14 8 O 1025,7 20
19.04.2019 05:00:00 12,1 3,5 7 4 - - O 1025,5 20
19.04.2019 04:00:00 11,9 3,7 7 4 18 10 ONO 1025,2 19
19.04.2019 03:00:00 12,3 3,7 7 4 18 10 ONO 1025,0 20
19.04.2019 02:00:00 12,8 3,9 7 4 - - NO 1025,0 20
19.04.2019 01:00:00 13,6 4,1 7 4 18 10 ONO 1024,9 19
19.04.2019 00:00:00 14,3 4,0 7 4 14 8 ONO 1024,5 20
18.04.2019 23:00:00 14,5 4,3 7 4 - - NO 1024,2 20
18.04.2019 22:00:00 16,0 4,1 7 4 11 6 NO 1023,8 20
18.04.2019 21:00:00 17,2 4,2 7 4 14 8 ONO 1023,5 20
18.04.2019 20:00:00 18,8 4,7 7 4 - - O 1023,0 20
18.04.2019 19:00:00 20,7 3,0 11 6 29 16 O 1022,6 20
18.04.2019 18:00:00 21,1 4,2 14 8 29 16 O 1022,5 19
18.04.2019 17:00:00 21,3 3,9 14 8 - - O 1022,5 20
18.04.2019 16:00:00 21,5 2,5 18 10 32 18 ONO 1022,6 20
18.04.2019 15:00:00 21,0 1,7 18 10 32 18 O 1022,7 18
18.04.2019 14:00:00 20,9 3,6 14 8 - - O 1022,7 20
18.04.2019 13:00:00 19,4 6,2 14 8 22 12 O 1023,2 15
18.04.2019 12:00:00 17,4 7,7 11 6 22 12 O 1023,7 8
18.04.2019 11:00:00 15,5 7,3 11 6 - - O 1023,7 19
18.04.2019 10:00:00 13,6 7,6 7 4 22 12 O 1023,6 11
18.04.2019 09:00:00 11,3 6,8 11 6 22 12 O 1023,3 10
18.04.2019 08:00:00 9,2 7,4 7 4 - - ONO 1023,0 4,8
18.04.2019 07:00:00 9,0 7,1 7 4 14 8 O 1022,6 5
18.04.2019 06:00:00 8,8 7,3 7 4 11 6 ONO 1022,3 5
18.04.2019 05:00:00 9,3 7,5 4 2 - - N 1022,6 5
18.04.2019 04:00:00 9,1 7,4 7 4 14 8 ONO 1022,7 4,5
18.04.2019 03:00:00 10,1 8,0 7 4 14 8 ONO 1022,5 5
18.04.2019 02:00:00 10,3 7,8 7 4 - - ONO 1022,6 5
18.04.2019 01:00:00 10,9 7,7 7 4 14 8 ONO 1022,7 6
18.04.2019 00:00:00 12,5 7,4 7 4 18 10 O 1022,5 9
17.04.2019 23:00:00 12,9 7,7 7 4 - - O 1022,5 8
17.04.2019 22:00:00 13,0 8,1 4 2 7 4 N 1022,2 7
17.04.2019 21:00:00 12,9 8,3 4 2 7 4 N 1021,7 8
17.04.2019 20:00:00 13,4 8,6 4 2 - - N 1021,3 8
17.04.2019 19:00:00 13,8 8,8 7 4 14 8 O 1021,5 9
17.04.2019 18:00:00 14,0 8,5 11 6 14 8 ZO 1021,5 11
17.04.2019 17:00:00 14,3 8,5 11 6 - - ZO 1021,6 8
17.04.2019 16:00:00 15,4 8,9 14 8 22 12 ZZO 1021,5 7
17.04.2019 15:00:00 14,6 7,7 7 4 14 8 ZZO 1021,3 8
17.04.2019 14:00:00 14,1 7,2 7 4 - - Z 1021,3 7
17.04.2019 13:00:00 13,9 9,3 7 4 14 8 Z 1021,3 4,6
17.04.2019 12:00:00 11,8 8,5 7 4 11 6 ZZO 1021,6 3,4
17.04.2019 11:00:00 11,4 8,3 7 4 - - N 1021,3 2,9
17.04.2019 10:00:00 10,6 8,2 7 4 11 6 N 1021,0 2,3
17.04.2019 09:00:00 9,8 8,2 4 2 11 6 N 1020,3 2,1
17.04.2019 08:00:00 8,8 8,0 4 2 - - N 1020,2 1,8
17.04.2019 07:00:00 8,3 7,4 4 2 7 4 N 1019,6 1,8
17.04.2019 06:00:00 8,5 7,4 4 2 7 4 N 1019,2 2,0
17.04.2019 05:00:00 9,1 7,4 4 2 - - N 1019,1 2,3
17.04.2019 04:00:00 9,0 7,5 4 2 11 6 N 1018,7 2,5
17.04.2019 03:00:00 9,1 7,3 4 2 11 6 N 1018,7 2,8
17.04.2019 02:00:00 9,6 7,2 4 2 - - N 1018,5 4,5
17.04.2019 01:00:00 9,8 8,3 7 4 11 6 Z 1018,3 5
17.04.2019 00:00:00 10,8 8,5 7 4 14 8 ZZO 1018,0 9
16.04.2019 23:00:00 11,3 8,4 7 4 - - ZZO 1017,7 12
16.04.2019 22:00:00 12,2 6,5 7 4 11 6 N 1017,6 9
16.04.2019 21:00:00 12,6 6,5 7 4 14 8 Z 1017,0 10
16.04.2019 20:00:00 13,7 6,7 7 4 - - Z 1016,2 13
16.04.2019 19:00:00 14,6 6,8 11 6 22 12 ZZW 1015,8 16
16.04.2019 18:00:00 15,4 6,5 14 8 22 12 Z 1015,2 16
16.04.2019 17:00:00 16,3 7,4 11 6 - - ZZW 1014,7 16
16.04.2019 16:00:00 16,5 7,4 14 8 25 14 Z 1014,7 19
16.04.2019 15:00:00 16,6 7,1 7 4 18 10 ZO 1014,7 14
16.04.2019 14:00:00 16,6 6,1 7 4 - - OZO 1014,6 15
16.04.2019 13:00:00 16,3 6,9 7 4 14 8 O 1014,6 11
16.04.2019 12:00:00 14,8 5,4 7 4 14 8 OZO 1014,6 13
16.04.2019 11:00:00 13,9 4,8 7 4 - - OZO 1014,7 19
16.04.2019 10:00:00 11,8 4,3 7 4 18 10 OZO 1014,7 14
16.04.2019 09:00:00 9,3 2,8 7 4 18 10 O 1014,7 17
16.04.2019 08:00:00 7,0 2,5 11 6 - - ONO 1014,8 13
16.04.2019 07:00:00 7,1 2,4 7 4 14 8 O 1014,7 13
16.04.2019 06:00:00 7,4 2,7 7 4 18 10 O 1014,7 13
16.04.2019 05:00:00 8,3 3,0 11 6 - - O 1015,1 14
16.04.2019 04:00:00 8,8 3,2 11 6 14 8 O 1015,2 15
16.04.2019 03:00:00 8,6 3,5 7 4 14 8 ONO 1015,5 12
16.04.2019 02:00:00 9,0 3,7 7 4 - - ONO 1016,1 12
16.04.2019 01:00:00 10,5 4,0 7 4 14 8 O 1016,2 13
16.04.2019 00:00:00 11,7 4,0 7 4 18 10 O 1016,3 16
15.04.2019 23:00:00 12,6 4,2 11 6 - - O 1016,5 17
15.04.2019 22:00:00 12,6 4,7 7 4 14 8 ONO 1016,7 13
15.04.2019 21:00:00 12,8 5,3 11 6 22 12 ONO 1016,7 12
15.04.2019 20:00:00 14,8 4,9 14 8 - - O 1016,6 13
15.04.2019 19:00:00 15,1 4,2 14 8 29 16 O 1016,7 13
15.04.2019 18:00:00 15,1 3,8 11 6 29 16 O 1017,7 17
15.04.2019 17:00:00 14,3 3,4 11 6 - - O 1018,7 20
15.04.2019 16:00:00 13,8 3,3 11 6 25 14 ZO 1019,8 18
15.04.2019 15:00:00 12,3 2,6 14 8 29 16 OZO 1021,1 11
15.04.2019 14:00:00 11,3 3,2 14 8 - - O 1021,8 19
15.04.2019 13:00:00 10,2 2,3 14 8 22 12 O 1023,1 13
15.04.2019 12:00:00 9,1 1,9 11 6 18 10 O 1024,0 17
15.04.2019 11:00:00 8,4 2,0 7 4 - - O 1024,7 12
15.04.2019 10:00:00 6,9 2,5 7 4 18 10 O 1025,2 12
15.04.2019 09:00:00 4,2 1,2 7 4 18 10 O 1025,7 11
15.04.2019 08:00:00 2,7 0,3 7 4 - - O 1025,7 9
15.04.2019 07:00:00 1,6 -0,5 4 2 11 6 N 1025,7 8
15.04.2019 06:00:00 1,6 -0,9 7 4 11 6 ONO 1026,0 9
15.04.2019 05:00:00 2,0 -1,1 7 4 - - ONO 1026,4 12
15.04.2019 04:00:00 2,9 -1,0 4 2 14 8 N 1026,5 14
15.04.2019 03:00:00 4,2 -1,0 7 4 14 8 O 1026,5 13
15.04.2019 02:00:00 4,8 -1,2 7 4 - - O 1026,5 16
15.04.2019 01:00:00 4,4 -1,3 7 4 14 8 O 1026,9 15
15.04.2019 00:00:00 4,8 -1,8 7 4 11 6 NO 1026,5 17
14.04.2019 23:00:00 5,3 -1,4 7 4 - - NO 1026,2 12
14.04.2019 22:00:00 5,7 -1,0 4 2 7 4 - 1025,9 12
14.04.2019 21:00:00 6,8 -0,2 4 2 7 4 N 1025,0 10
14.04.2019 20:00:00 8,6 1,3 4 2 - - N 1025,4 11
14.04.2019 19:00:00 8,3 0,7 4 2 18 10 N 1025,5 13
14.04.2019 18:00:00 9,1 0,4 7 4 22 12 NO 1025,2 10
14.04.2019 17:00:00 8,7 0,8 7 4 - - ONO 1025,0 10
14.04.2019 16:00:00 7,8 1,1 11 6 22 12 O 1025,2 8
14.04.2019 15:00:00 7,0 1,3 11 6 25 14 O 1025,7 8
14.04.2019 14:00:00 6,1 -0,2 11 6 - - O 1025,7 8
14.04.2019 13:00:00 6,0 0,5 14 8 29 16 NO 1025,7 9
14.04.2019 12:00:00 4,7 0,6 11 6 22 12 ONO 1025,7 9
14.04.2019 11:00:00 3,2 0,5 11 6 - - ONO 1025,9 5
14.04.2019 10:00:00 1,6 0,6 7 4 14 8 NO 1025,5 3,5
14.04.2019 09:00:00 0,4 -0,2 7 4 14 8 NO 1025,2 3,3
14.04.2019 08:00:00 -1,0 -1,3 4 2 - - N 1025,2 2,1
14.04.2019 07:00:00 -1,1 -1,6 4 2 11 6 N 1024,7 1,6
14.04.2019 06:00:00 -1,2 -2,0 4 2 7 4 N 1024,7 2,8
14.04.2019 05:00:00 -0,7 -1,9 4 2 - - N 1024,9 4,8
14.04.2019 04:00:00 -1,0 -2,3 7 4 11 6 NO 1024,7 8
14.04.2019 03:00:00 0,1 -1,8 4 2 7 4 N 1024,7 14
14.04.2019 02:00:00 0,0 -2,0 7 4 - - NO 1024,7 14

tt = temperatuur
td = dauwpunt
ff = windsnelheid
fx = windstoten
dd = windrichting
ppp = luchtdruk
vv = zicht

Weerstations in de omgeving